CW8322 Weather Reports


time (UTC)temp
C
wind
direction
speed
KPH
gust
KPH
rain 1hr
cm
rain 24hr
cm
rain mn
cm
humidity
%
barometer
mb
20260505192101 18 360 3.2 20.9 0.00 0.00 0.00 37 1012.3
20260505191507 18 360 9.7 22.5 0.00 0.00 0.00 33 1012.5
20260505191012 18 360 8.0 22.5 0.00 0.00 0.00 32 1012.5
20260505190624 18 360 9.7 20.9 0.00 0.00 0.00 31 1012.7
20260505190106 18 360 6.4 16.1 0.00 0.00 0.00 31 1012.8
20260505185554 18 360 4.8 19.3 0.00 0.00 0.00 33 1012.9
20260505185051 18 360 3.2 19.3 0.00 0.00 0.00 31 1013.0
20260505184502 18 360 9.7 20.9 0.00 0.00 0.00 31 1013.0
20260505184105 18 360 6.4 20.9 0.00 0.00 0.00 31 1013.1
20260505183605 18 360 4.8 16.1 0.00 0.00 0.00 33 1013.2
20260505183051 18 360 4.8 17.7 0.00 0.00 0.00 34 1013.0
20260505182516 17 360 8.0 19.3 0.00 0.00 0.00 37 1013.1
20260505182036 17 360 4.8 19.3 0.00 0.00 0.00 39 1013.2
20260505181607 17 360 8.0 19.3 0.00 0.00 0.00 36 1013.2
20260505181124 18 360 8.0 19.3 0.00 0.00 0.00 32 1013.2
20260505180600 18 360 4.8 14.5 0.00 0.00 0.00 34 1013.3
20260505180014 18 360 6.4 12.9 0.00 0.00 0.00 37 1013.2
20260505175504 18 360 4.8 9.7 0.00 0.00 0.00 35 1013.1
20260505175025 18 360 1.6 16.1 0.00 0.00 0.00 34 1013.0
20260505174550 17 360 1.6 29.0 0.00 0.00 0.00 37 1013.2
20260505174044 18 360 4.8 29.0 0.00 0.00 0.00 38 1013.2
20260505173540 18 360 1.6 19.3 0.00 0.00 0.00 40 1013.5
20260505173101 18 360 3.2 19.3 0.00 0.00 0.00 35 1013.3
20260505172601 18 360 4.8 12.9 0.00 0.00 0.00 38 1013.5
20260505172054 18 360 4.8 14.5 0.00 0.00 0.00 36 1013.7
20260505171540 17 360 4.8 22.5 0.00 0.00 0.00 38 1013.5
20260505171003 18 360 9.7 19.3 0.00 0.00 0.00 35 1013.5
20260505170627 18 360 4.8 12.9 0.00 0.00 0.00 37 1013.8
20260505170034 17 360 6.4 12.9 0.00 0.00 0.00 37 1013.8
20260505165527 17 360 1.6 24.1 0.00 0.00 0.00 40 1013.8
20260505165004 18 360 4.8 24.1 0.00 0.00 0.00 37 1013.9
20260505164544 17 360 9.7 19.3 0.00 0.00 0.00 39 1013.9
20260505164018 17 360 4.8 17.7 0.00 0.00 0.00 39 1013.7
20260505163539 17 360 8.0 17.7 0.00 0.00 0.00 40 1013.5
20260505163101 17 360 3.2 19.3 0.00 0.00 0.00 39 1013.8
20260505162554 17 360 9.7 19.3 0.00 0.00 0.00 40 1013.6
20260505162046 16 360 4.8 9.7 0.00 0.00 0.00 42 1013.6
20260505161629 17 360 3.2 17.7 0.00 0.00 0.00 39 1013.5
20260505161112 17 360 9.7 17.7 0.00 0.00 0.00 40 1013.4
20260505160628 16 360 4.8 16.1 0.00 0.00 0.00 40 1013.7
20260505153102 15 360 6.4 14.5 0.00 0.00 0.00 44 1013.7
20260505152559 15 360 4.8 9.7 0.00 0.00 0.00 41 1013.8
20260505152057 15 360 3.2 9.7 0.00 0.00 0.00 44 1013.7
20260505151512 15 119 3.2 9.7 0.00 0.00 0.00 43 1013.6
20260505151012 15 34 3.2 17.7 0.00 0.00 0.00 46 1013.8
20260505150528 15 34 6.4 17.7 0.00 0.00 0.00 44 1014.0
20260505140553 15 360 9.7 20.9 0.00 0.00 0.00 42 1013.8
20260505124504 11 360 4.8 14.5 0.00 0.00 0.00 52 1013.2
20260505124024 11 360 1.6 8.0 0.00 0.00 0.00 56 1013.3
20260505123611 11 338 3.2 8.0 0.00 0.00 0.00 54 1013.1
20260505123042 10 360 1.6 6.4 0.00 0.00 0.00 56 1013.1
20260505122545 10 360 3.2 9.7 0.00 0.00 0.00 56 1013.1
20260505122046 10 360 3.2 9.7 0.00 0.00 0.00 57 1013.1
20260505121643 9 360 1.6 16.1 0.00 0.00 0.00 58 1013.1
20260505121129 9 360 6.4 16.1 0.00 0.00 0.00 60 1013.1
20260505120604 8 360 1.6 6.4 0.00 0.00 0.00 62 1013.1
20260505120056 8 360 3.2 6.4 0.00 0.00 0.00 62 1013.0
20260505115501 8 360 1.6 6.4 0.00 0.00 0.00 61 1013.0
20260505115103 8 360 1.6 6.4 0.00 0.00 0.00 62 1013.0
20260505114507 8 350 1.6 3.2 0.00 0.00 0.00 62 1012.9
20260505114002 8 351 0.0 3.2 0.00 0.00 0.00 61 1012.9
20260505113502 8 360 1.6 4.8 0.00 0.00 0.00 60 1012.9
20260505113047 9 351 3.2 9.7 0.00 0.00 0.00 60 1012.8
20260505112547 9 305 1.6 9.7 0.00 0.00 0.00 58 1012.9
20260505112051 9 277 1.6 6.4 0.00 0.00 0.00 59 1012.9
20260505111503 9 321 0.0 8.0 0.00 0.00 0.00 58 1012.8
20260505111004 9 344 3.2 6.4 0.00 0.00 0.00 58 1012.6
20260505110613 9 21 1.6 6.4 0.00 0.00 0.00 58 1012.8
20260505102049 9 360 0.0 4.8 0.00 0.00 0.00 58 1012.9
20260505101511 9 360 0.0 3.2 0.00 0.00 0.00 58 1012.9
20260505101107 9 360 0.0 3.2 0.00 0.00 0.00 58 1012.9
20260505100602 9 360 1.6 3.2 0.00 0.00 0.00 57 1012.8
20260505100037 10 360 0.0 4.8 0.00 0.00 0.00 57 1012.9
20260505095542 10 360 1.6 4.8 0.00 0.00 0.00 56 1012.7
20260505095148 10 360 1.6 8.0 0.00 0.00 0.00 57 1012.8
20260505094559 10 30 1.6 9.7 0.00 0.00 0.00 55 1012.8
20260505094055 10 325 3.2 9.7 0.00 0.00 0.00 55 1012.8
20260505093552 10 360 3.2 9.7 0.00 0.00 0.00 55 1012.9
20260505093007 10 360 3.2 9.7 0.00 0.00 0.00 54 1012.9
20260505092508 10 360 1.6 8.0 0.00 0.00 0.00 56 1012.9
20260505092024 10 360 0.0 8.0 0.00 0.00 0.00 54 1012.9
20260505091545 10 360 3.2 12.9 0.00 0.00 0.00 55 1013.0
20260505091046 10 42 6.4 12.9 0.00 0.00 0.00 54 1013.0
20260505090543 10 38 1.6 6.4 0.00 0.00 0.00 56 1013.0
20260505090005 10 36 3.2 9.7 0.00 0.00 0.00 56 1013.0
20260505085503 10 360 3.2 8.0 0.00 0.00 0.00 58 1013.2
20260505085107 10 41 3.2 6.4 0.00 0.00 0.00 57 1013.1
20260505084539 10 9 3.2 6.4 0.00 0.00 0.00 57 1013.1
20260505084041 10 9 1.6 4.8 0.00 0.00 0.00 58 1013.2
20260505083543 10 9 0.0 6.4 0.00 0.00 0.00 58 1013.0
20260505083105 10 9 1.6 6.4 0.00 0.00 0.00 55 1012.9
20260505082557 10 351 3.2 6.4 0.00 0.00 0.00 55 1013.0
20260505082053 10 351 1.6 6.4 0.00 0.00 0.00 56 1013.1
20260505081510 10 18 3.2 17.7 0.00 0.00 0.00 55 1013.0
20260505081004 10 325 3.2 17.7 0.00 0.00 0.00 54 1013.1
20260505080504 10 360 1.6 8.0 0.00 0.00 0.00 55 1013.0
20260505080047 10 360 1.6 8.0 0.00 0.00 0.00 55 1013.1
20260505075551 10 360 3.2 12.9 0.00 0.00 0.00 54 1013.1
20260505075051 10 360 0.0 6.4 0.00 0.00 0.00 55 1013.0
20260505074605 10 351 0.0 14.5 0.00 0.00 0.00 54 1013.1
20260505074107 10 351 3.2 9.7 0.00 0.00 0.00 54 1013.0
20260505073607 10 327 3.2 8.0 0.00 0.00 0.00 53 1013.1
20260505073054 10 360 3.2 8.0 0.00 0.00 0.00 54 1013.1
20260505072541 10 323 1.6 14.5 0.00 0.00 0.00 53 1013.1
20260505072039 10 360 3.2 14.5 0.00 0.00 0.00 54 1013.0
20260505071603 10 360 1.6 17.7 0.00 0.00 0.00 54 1013.1
20260505071055 10 360 8.0 17.7 0.00 0.00 0.00 54 1013.2
20260505070551 11 11 1.6 9.7 0.00 0.00 0.00 54 1013.0
20260505070001 11 45 0.0 9.7 0.00 0.00 0.00 52 1013.1
20260505065606 11 73 3.2 6.4 0.00 0.00 0.00 52 1013.1
20260505065107 11 360 0.0 8.0 0.00 0.00 0.00 52 1013.0
20260505064545 11 17 1.6 9.7 0.00 0.00 0.00 52 1013.1
20260505064041 11 347 3.2 9.7 0.00 0.00 0.00 51 1013.2
20260505063541 11 22 3.2 9.7 0.00 0.00 0.00 51 1013.2
20260505063158 11 340 1.6 14.5 0.00 0.00 0.00 51 1013.2
20260505062626 11 24 4.8 14.5 0.00 0.00 0.00 51 1013.3
20260505062058 11 304 3.2 12.9 0.00 0.00 0.00 51 1013.4
20260505061540 11 28 3.2 11.3 0.00 0.00 0.00 51 1013.5
20260505061007 11 59 3.2 12.9 0.00 0.00 0.00 50 1013.5
20260505060507 11 309 4.8 12.9 0.00 0.00 0.00 50 1013.6
20260505060045 11 355 4.8 12.9 0.00 0.00 0.00 50 1013.6
20260505055549 11 325 4.8 9.7 0.00 0.00 0.00 50 1013.7
20260505055047 11 11 3.2 9.7 0.00 0.00 0.00 50 1013.7
20260505054542 11 360 3.2 12.9 0.00 0.00 0.00 50 1013.8
20260505054109 11 360 4.8 12.9 0.00 0.00 0.00 50 1013.9
20260505053601 11 296 1.6 9.7 0.00 0.00 0.00 50 1013.9
20260505053006 12 49 0.0 24.1 0.00 0.00 0.00 50 1013.8
20260505052501 12 332 3.2 9.7 0.00 0.00 0.00 49 1013.9
20260505052006 12 360 3.2 9.7 0.00 0.00 0.00 50 1013.7
20260505051543 12 351 3.2 9.7 0.00 0.00 0.00 50 1013.8
20260505051039 12 319 1.6 8.0 0.00 0.00 0.00 49 1013.8
20260505050542 12 9 1.6 16.1 0.00 0.00 0.00 49 1013.7
20260505050105 12 313 6.4 16.1 0.00 0.00 0.00 49 1013.8
20260505041601 12 360 4.8 12.9 0.00 0.00 0.00 49 1014.0
20260505041051 12 323 4.8 16.1 0.00 0.00 0.00 48 1013.9
20260505040551 12 346 4.8 19.3 0.00 0.00 0.00 48 1014.0
20260505040150 12 30 6.4 19.3 0.00 0.00 0.00 48 1014.2
20260505035603 12 26 3.2 14.5 0.00 0.00 0.00 48 1014.1
20260505035058 12 145 6.4 25.7 0.00 0.00 0.00 49 1014.2
20260505034001 12 57 8.0 16.1 0.00 0.00 0.00 49 1014.2
20260505033502 12 320 1.6 24.1 0.00 0.00 0.00 49 1014.3
20260505033035 12 319 11.3 24.1 0.00 0.00 0.00 50 1014.3
20260505032516 12 50 6.4 19.3 0.00 0.00 0.00 50 1014.4
20260505032035 12 49 6.4 19.3 0.00 0.00 0.00 50 1014.4
20260505031610 12 9 3.2 12.9 0.00 0.00 0.00 50 1014.4
20260505031059 12 9 4.8 12.9 0.00 0.00 0.00 50 1014.4
20260505030622 12 286 4.8 14.5 0.00 0.00 0.00 51 1014.5
20260505030012 12 9 3.2 14.5 0.00 0.00 0.00 50 1014.5
20260505025527 12 71 3.2 14.5 0.00 0.00 0.00 50 1014.7
20260505025027 12 38 6.4 17.7 0.00 0.00 0.00 50 1014.6
20260505024549 12 90 4.8 17.7 0.00 0.00 0.00 50 1014.6
20260505024159 12 14 3.2 12.9 0.00 0.00 0.00 50 1014.5
20260505023543 12 58 3.2 11.3 0.00 0.00 0.00 50 1014.7
20260505023122 13 50 3.2 11.3 0.00 0.00 0.00 50 1014.6
20260505022606 13 46 3.2 9.7 0.00 0.00 0.00 49 1014.7
20260505022104 13 76 3.2 14.5 0.00 0.00 0.00 49 1014.6
20260505021539 13 36 4.8 14.5 0.00 0.00 0.00 49 1014.6
20260505021040 13 26 3.2 22.5 0.00 0.00 0.00 49 1014.6
20260505020543 13 32 8.0 22.5 0.00 0.00 0.00 50 1014.6
20260505020105 13 31 3.2 9.7 0.00 0.00 0.00 50 1014.7
20260505015559 13 77 3.2 9.7 0.00 0.00 0.00 50 1014.6
20260505015059 13 53 0.0 8.0 0.00 0.00 0.00 51 1014.6
20260505014505 13 49 1.6 8.0 0.00 0.00 0.00 50 1014.4
20260505014112 13 28 1.6 8.0 0.00 0.00 0.00 51 1014.4
20260505013608 13 18 3.2 8.0 0.00 0.00 0.00 50 1014.5
20260505013035 13 41 3.2 9.7 0.00 0.00 0.00 50 1014.4
20260505012538 13 332 0.0 9.7 0.00 0.00 0.00 50 1014.4
20260505012039 13 37 4.8 20.9 0.00 0.00 0.00 50 1014.4
20260505011555 13 44 6.4 20.9 0.00 0.00 0.00 50 1014.6
20260505011048 13 346 4.8 16.1 0.00 0.00 0.00 50 1014.5
20260505010548 13 55 4.8 11.3 0.00 0.00 0.00 50 1014.3
20260505010002 13 24 3.2 8.0 0.00 0.00 0.00 50 1014.3
20260505005632 13 18 3.2 6.4 0.00 0.00 0.00 50 1014.3
20260505005109 13 5 1.6 6.4 0.00 0.00 0.00 50 1014.3
20260505004547 14 35 1.6 8.0 0.00 0.00 0.00 50 1014.3
20260505004142 14 40 3.2 8.0 0.00 0.00 0.00 50 1014.2
20260505003509 14 25 1.6 8.0 0.00 0.00 0.00 49 1014.2
20260505003053 14 30 3.2 9.7 0.00 0.00 0.00 49 1014.3
20260505002559 15 355 4.8 9.7 0.00 0.00 0.00 49 1014.2
20260505002051 15 360 0.0 8.0 0.00 0.00 0.00 50 1014.2
20260505001638 15 360 3.2 8.0 0.00 0.00 0.00 49 1014.0
20260505001125 15 360 3.2 16.1 0.00 0.00 0.00 49 1014.1
20260505000608 15 360 6.4 16.1 0.00 0.00 0.00 49 1014.0
20260505000054 15 360 3.2 14.5 0.00 0.00 0.00 49 1013.9
20260504235537 15 360 3.2 8.0 0.00 0.00 0.00 49 1014.0
20260504235039 15 360 3.2 9.7 0.00 0.00 0.00 50 1013.9
20260504234559 15 360 4.8 9.7 0.00 0.00 0.00 49 1013.9
20260504234100 15 360 1.6 12.9 0.00 0.00 0.00 49 1013.8
20260504233600 15 360 1.6 14.5 0.00 0.00 0.00 48 1013.9
20260504233036 15 360 4.8 14.5 0.00 0.00 0.00 47 1014.0
20260504232539 16 360 0.0 14.5 0.00 0.00 0.00 47 1014.0
20260504232041 16 360 4.8 9.7 0.00 0.00 0.00 46 1013.9
20260504231559 16 360 3.2 9.7 0.00 0.00 0.00 46 1014.0
20260504231052 16 360 0.0 6.4 0.00 0.00 0.00 47 1013.8
20260504230548 16 360 1.6 14.5 0.00 0.00 0.00 46 1013.9
20260504230002 16 360 3.2 14.5 0.00 0.00 0.00 47 1013.9
20260504225500 16 360 3.2 12.9 0.00 0.00 0.00 46 1014.0
20260504225126 16 360 1.6 14.5 0.00 0.00 0.00 45 1014.1
20260504224540 16 360 6.4 14.5 0.00 0.00 0.00 45 1014.0
20260504224045 16 360 1.6 16.1 0.00 0.00 0.00 44 1014.1
20260504223635 16 360 4.8 16.1 0.00 0.00 0.00 45 1014.1
20260504223108 17 360 8.0 14.5 0.00 0.00 0.00 43 1014.1
20260504222603 17 360 3.2 12.9 0.00 0.00 0.00 44 1014.1
20260504222056 17 360 4.8 12.9 0.00 0.00 0.00 45 1014.2
20260504221509 17 360 3.2 16.1 0.00 0.00 0.00 44 1014.0
20260504221000 17 360 3.2 14.5 0.00 0.00 0.00 44 1014.1
20260504220606 17 360 1.6 14.5 0.00 0.00 0.00 44 1014.1
20260504220034 17 360 4.8 19.3 0.00 0.00 0.00 39 1013.9
20260504215535 17 360 9.7 19.3 0.00 0.00 0.00 40 1014.0
20260504215016 17 360 1.6 16.1 0.00 0.00 0.00 38 1014.0
20260504214602 17 360 3.2 16.1 0.00 0.00 0.00 38 1013.9
20260504214100 17 360 3.2 12.9 0.00 0.00 0.00 38 1013.9
20260504213550 17 360 4.8 12.9 0.00 0.00 0.00 36 1013.8
20260504213139 17 360 4.8 16.1 0.00 0.00 0.00 37 1013.9
20260504212606 17 360 4.8 16.1 0.00 0.00 0.00 38 1013.9
20260504212104 18 360 4.8 16.1 0.00 0.00 0.00 38 1014.0
20260504211508 18 360 4.8 14.5 0.00 0.00 0.00 35 1013.9
20260504211013 18 360 1.6 6.4 0.00 0.00 0.00 35 1013.9
20260504210508 18 360 1.6 6.4 0.00 0.00 0.00 35 1014.0
20260504210053 18 360 1.6 6.4 0.00 0.00 0.00 36 1013.9
20260504205554 18 360 1.6 6.4 0.00 0.00 0.00 34 1014.0
20260504205053 17 360 1.6 12.9 0.00 0.00 0.00 36 1014.1
20260504204504 18 360 6.4 12.9 0.00 0.00 0.00 34 1014.3
20260504204106 18 360 3.2 12.9 0.00 0.00 0.00 32 1014.0
20260504203038 18 360 6.4 17.7 0.00 0.00 0.00 32 1014.3
20260504202538 17 360 3.2 22.5 0.00 0.00 0.00 32 1014.3
20260504202034 18 360 9.7 22.5 0.00 0.00 0.00 35 1014.2
20260504201550 18 360 3.2 17.7 0.00 0.00 0.00 29 1014.4
20260504201046 18 10 6.4 17.7 0.00 0.00 0.00 30 1014.5
20260504200546 18 236 3.2 12.9 0.00 0.00 0.00 34 1014.7
20260504200140 18 60 4.8 20.9 0.00 0.00 0.00 30 1014.4
20260504195630 18 69 3.2 20.9 0.00 0.00 0.00 29 1014.7
20260504195108 18 105 3.2 14.5 0.00 0.00 0.00 26 1014.7
20260504194536 19 281 3.2 24.1 0.00 0.00 0.00 24 1014.8
20260504194037 20 189 3.2 24.1 0.00 0.00 0.00 25 1014.9
20260504193539 19 360 3.2 14.5 0.00 0.00 0.00 24 1014.9
20260504192600 19 360 3.2 14.5 0.00 0.00 0.00 24 1015.1